Weather in Bolshaya Dzhalga

Russia / Stavropol Krai     45°58′10″N   42°41′21″E
temp.,
°C
wind,
m/s
gust,
m/s
humid.,
%
clouds,
%
prec.,
mm/h
press.,
hPa
HPBL,
m
19 september, sun
sun1900:00+17se712595 0.0 1015358
03:00+16se6136769 0.0 1015423
06:00+15ese5127889 0.0 1016374
09:00+19se81059100 0.0 1015784
12:00+23se8945100 0.0 10141363
15:00+25se784149 0.0 10131644
18:00+23se594797 0.0 1013281
21:00+20se81356100 0.0 1013481
20 september, mon
mon2000:00+19se71357100 0.0 1012515
03:00+17sse4876100 1.1 1013323
06:00+15sse4680100 0.2 1013126
09:00+22sw495419 0.2 10131159
12:00+26wsw81038100 0.0 10132548
15:00+26wsw6839100 0.3 10122306
18:00+23w364554 0.0 1013113
21:00+19s22601 0.1 101412
21 september, tue
tue2100:00+18s357074 0.0 101577
03:00+17sw476514 0.0 1014117
06:00+16wsw3566100 0.0 101486
09:00+18nnw236397 0.0 1015146
12:00+24ese4643100 0.0 1012880
15:00+28sse5632100 0.0 10092071
18:00+24ssw5940100 0.1 1008226
21:00+16nnw3492100 10.3 1012253
22 september, wed
wed2200:00+17wnw5790100 1.7 1013625
03:00+14wnw5883100 1.8 1014838
06:00+13nw4884100 0.0 1015495
09:00+14wnw465992 0.1 10161131
12:00+17w4547100 0.0 10151473
15:00+18w454298 0.0 10151526
18:00+17wnw354575 0.0 1015487
21:00+14nw365796 0.0 1016159
23 september, thu
thu2300:00+14nnw2354100 0.0 1016164
03:00+14ne2356100 0.0 1015164
06:00+14ene3556100 0.0 1014216
09:00+15e4655100 0.0 1014536
12:00+15e5753100 0.0 1013825
15:00+16e5751100 0.0 1011838
18:00+16n2455100 0.0 1010187
21:00+13nnw7968100 0.0 1009431